Location: Beetenbrück
(52.8113°N, 9.5946°E)
Time: 22:06:35
(UTC+00:00)

Cosmos 1605 Rocket - Pass Details

Date: 14 April 2026
Orbit: 945 x 1004 km, 82.9° (Epoch: 12 May)

Event Time Altitude Azimuth Distance (km) Brightness Sun altitude
Exits shadow 22:01:46 53° 200° (SSW) 1,157 4.1 -25.2°
Maximum altitude 22:03:20 83° 280° (W) 962 3.9 -25.3°
Drops below altitude 10° 22:09:30 10° 9° (N) 2,691 7.1 -25.6°
Sets 22:12:01 0° 11° (N) 3,646 7.9 -25.8°
